www.pogodaiklimat.ru

Погода и климат >> Архив погоды >> Россия >> Оренбургская область >> Орск


АРХИВ ПОГОДЫ в Орске

Время (UTC), дата Ветер
(напр.,м/с)
 
Видим.   Явления Облачность Т
(С)
Тd
(С)
f
(%)
Тe
(С)
Тes
(С)
Комфортность P
(гПа)
Po
(гПа)
Тmin
(С)
Tmax
(С)
R
(мм)
R24
(мм)
S
(см)
00 9.07 ЮЗ 3 10 км 4/0
[Ac trans Ci fib]
+18.0 +5.2 43 +18 +18 тепло 1008.2 975.3
03 9.07 СЗ 3 10 км 3/0
[Ci fib]
+22.8 +6.0 34 +23 +27 комфорт 1008.8 976.4 +14.8
06 9.07 З 3 10 км ясно +28.6 +6.2 24 +27 +39 жарко 1008.4 976.6
09 9.07 СЗ 5-10
{11}
10 км 8/5 1000 м
[Cu hum Ci fib]
+32.0 +2.2 15 +29 +33 жарко 1007.0 975.5
12 9.07 СЗ 3
{10}
10 км 5/5 1000 м
[Cu hum]
+32.4 +2.2 15 +30 +33 жарко 1006.5 975.1
15 9.07 штиль 0 10 км 5/0
[Ac trans Ci fib]
+32.3 +0.7 13 +29 +30 жарко 1006.5 975.1 +33.3
18 9.07 Ю 4 10 км 3/0
[Ci fib]
+22.7 +5.8 33 +23 +23 комфорт 1008.3 975.8
21 9.07 Ю 5 10 км ясно +20.5 +8.2 45 +22 +22 комфорт 1008.0 975.4
00 10.07 Ю 5 10 км 6/0
[Ci fib]
+19.5 +7.6 46 +20 +20 тепло 1007.5 974.7
03 10.07 Ю 8-12
{12}
10 км 8/0
[Ac trans Ci fib]
+25.9 +6.4 29 +26 +26 жарко 1006.2 974.2 +18.7
06 10.07 Ю 11-18
{17}
10 км 9/0
[Ac trans Ci fib]
+33.2 -0.2 12 +30 +30 жарко 1004.3 973.0
09 10.07 С 2
{18}
10 км 10/0
[Ac und]
+27.9 +4.5 22 +26 +31 жарко 1005.0 973.2
12 10.07 ЮЗ 6-10
{11}
10 км 10/0
[Ac und]
+31.7 +1.2 14 +29 +30 жарко 1003.4 972.0
15 10.07 ЮЗ 3
{10}
10 км 10/0
[Ac und]
+29.3 +6.1 23 +28 +28 жарко 1003.9 972.3 +34.1
18 10.07 З 6
{13}
10 км 9/9 1200 м
[Cb cap]
+25.9 +10.1 37 +27 +27 жарко 1005.3 973.3
21 10.07 ЮЗ 7
{11}
10 км 9/9 1500 м
[Cb cap]
+24.7 +10.7 41 +26 +26 жарко 1004.7 972.7
00 11.07 ЮЗ 6
{11}
10 км {ливн. осадки} 8/0
[Ac trans]
+20.2 +16.9 81 +23 +23 комфорт 1005.9 973.4
03 11.07 ЮЗ 2 10 км слаб. ливневой дождь 10/10 1200 м
[Cb cap]
+19.9 +17.4 86 +23 +23 комфорт 1007.2 974.6 +19.5 0.3
06 11.07 СЗ 2 10 км {ливн. осадки} 6/0
[Ac trans]
+26.5 +15.5 51 +30 +38 душно 1006.5 974.6
09 11.07 З 3 10 км 9/9
[Cu med, cong]
+30.4 +12.5 33 +31 +33 жарко 1005.8 974.4
12 11.07 Ю 5 10 км 9/9 1500 м
[Cu med, cong]
+30.0 +12.6 34 +31 +31 жарко 1006.0 974.5
15 11.07 СЗ 5 10 км 3/0
[Ac trans]
+29.2 +6.5 24 +28 +28 жарко 1007.1 975.4 +31.3 0.1
18 11.07 С 3 10 км 3/0
[As trans]
+21.5 +7.3 40 +22 +22 комфорт 1009.1 976.5
21 11.07 С 3 10 км 3/0
[Ac trans]
+18.5 +8.0 50 +19 +19 по сезону 1009.7 976.8
00 12.07 С 2 10 км 4/0
[Ci fib]
+17.7 +8.2 54 +18 +18 тепло 1009.8 976.8
03 12.07 СВ 3 10 км 3/0
[Ci fib]
+23.1 +7.8 37 +24 +27 комфорт 1008.9 976.6 +17.0
06 12.07 В 3 10 км 3/0
[Ci fib]
+31.8 +9.1 25 +31 +42 жарко 1007.3 975.9
09 12.07 В 4 10 км 4/4 1500 м
[Cu hum Ci fib]
+36.6 +1.9 11 +33 +40 жарко 1004.9 974.0
12 12.07 Ю 7-11
{12}
10 км 5/4 1500 м
[Cu hum Ci fib]
+38.8 -0.3 9 +35 +36 очень
жарко
1002.9 972.3
15 12.07 В 7
{11}
10 км 8/0
[Ac trans Ci fib]
+36.9 -0.1 10 +33 +33 жарко 1002.3 971.5 +39.2
18 12.07 ЮВ 5
{10}
10 км 4/0
[Ci fib]
+28.8 +2.1 18 +27 +27 жарко 1002.9 971.3
21 12.07 Ю 4 10 км 4/0
[Ci fib]
+22.3 +5.4 33 +23 +23 комфорт 1003.8 971.5
00 13.07 Ю 5 10 км 6/0
[Ac trans]
+20.6 +3.6 33 +21 +21 комфорт 1004.0 971.4
03 13.07 Ю 7-10
{10}
10 км 8/0
[Ac trans]
+29.4 -0.3 15 +27 +27 жарко 1003.8 972.2 +20.1
06 13.07 Ю 7-11
{11}
10 км 8/0
[Ac trans Ci fib]
+38.3 -2.2 8 +34 +37 очень
жарко
1002.8 972.1
09 13.07 Ю 8-13
{14}
10 км 8/4 1500 м
[Cu hum Ci fib]
+39.6 -2.2 7 +36 +37 очень
жарко
1002.1 971.5
12 13.07 ЮВ 7
{20}
10 км 8/0
[Ac trans Ci fib]
+40.0 -4.1 6 +36 +37 очень
жарко
1001.3 970.7
15 13.07 ЮВ 6
{13}
10 км 8/0
[Ac trans Ci fib]
+37.3 -4.1 7 +33 +33 жарко 1001.0 970.2 +40.7
18 13.07 ЮЗ 4 10 км 6/0
[Ac trans]
+28.1 +0.1 16 +26 +26 жарко 1003.6 971.8
21 13.07 ЮВ 4
{13}
10 км 6/0
[Ac trans]
+23.7 +5.2 30 +24 +24 комфорт 1004.8 972.6
00 14.07 ЮВ 5 10 км 8/0
[Ac trans]
+23.8 +3.2 26 +23 +23 комфорт 1004.4 972.2
03 14.07 ЮВ 4 10 км 8/0
[Ac trans]
+28.8 +1.1 17 +27 +28 жарко 1004.5 972.8 +23.0
06 14.07 З 4 10 км 9/0
[Ac trans Ci fib]
+31.5 +10.5 27 +31 +36 жарко 1004.3 972.9
09 14.07 ЮЗ 4
{10}
10 км 10/0
[Ac und]
+35.1 +6.9 18 +33 +36 жарко 1003.4 972.4
12 14.07 Ю 5
{15}
10 км 10/0
[Ac und]
+33.2 +4.5 17 +31 +32 жарко 1003.2 972.0
15 14.07 З 2 10 км 9/0
[Ac As]
+31.6 +10.4 27 +31 +31 жарко 1003.4 972.1 +36.0
18 14.07 В 3 10 км 8/0
[Ac trans]
+25.5 +10.9 40 +27 +27 жарко 1001.6 969.7
21 14.07 ЮВ 6 10 км 8/0
[Ac trans]
+26.6 +4.9 25 +26 +26 жарко 998.0 966.3
00 15.07 ЮВ 10-13
{16}
10 км 8/8 1500 м
[Cb cap]
+28.2 -1.6 14 +25 +25 комфорт 995.0 963.6
03 15.07 З 7-13
{17}
10 км 3/0
[Ac trans]
+22.4 +16.6 70 +27 +28 душно 997.2 965.2 +22.3
06 15.07 ЮЗ 10-16
{16}
10 км 3/0
[Ac trans]
+26.2 +12.1 41 +28 +28 жарко 998.8 967.1
09 15.07 З 9-16
{16}
10 км 6/6 1500 м
[Cu hum]
+25.3 +11.4 42 +27 +27 жарко 1001.7 969.8
12 15.07 З 8-15
{16}
10 км 3/3 1500 м
[Cu hum]
+25.4 +9.3 36 +26 +27 жарко 1003.7 971.7
15 15.07 З 9-14
{15}
10 км ясно +23.2 +7.6 37 +24 +24 комфорт 1005.5 973.2 +27.0
18 15.07 СЗ 6 10 км ясно +18.8 +8.6 51 +19 +19 прохладно 1007.9 975.1
21 15.07 З 4 10 км ясно +15.8 +9.6 67 +15 +15 прохладно 1009.7 976.4

 

Местоположение метеостанции Орск (Оренбургская область, Россия): широта 51.07 долгота 58.60 высота над уровнем моря 285 м.

В архиве по умолчанию представлена погода в Орске за последнюю неделю. Архивные данные за месяц целиком и за предыдущие месяцы, начиная с января 2011 года, Вы можете получить, выбрав интересующий диапазон дат из раскрывающегося списка и нажав кнопку "Ввод!".


*Определитесь, кто Вы:
робот инопланетянин человек

Внимание! Время в таблицах - всемирное. Для получения местного времени необходимо прибавить поправку, которая равна 5 ч.

Смотрите также архив погоды в соседних городах и на ближайших метеорологических станциях:

Погода в Степном (Актюбинская область, Казахстан) (39 км)
Погода в Кос-Истеке (Актюбинская область, Казахстан) (62 км)
Погода в Домбаровском (Оренбургская область, Россия) (76 км)
Погода в Энергетике (Оренбургская область, Россия) (79 км)
Погода в Акъяре (Башкирия, Россия) (94 км)
Погода в Кувандыке (Оренбургская область, Россия) (96 км)
Погода в Акжаре (Актюбинская область, Казахстан) (103 км)
Погода в Родниковке (Актюбинская область, Казахстан) (111 км)
Погода в Айдырля (Оренбургская область, Россия) (132 км)
Погода в Актобе (Актюбинская область, Казахстан) (135 км)

Пояснения к столбцам:

Ветер - указаны скорость ветра в м/с - средняя за 10 мин, порывы в срок и между сроками (в фигурных скобках) и направление, откуда дует ветер: С - северный, СВ - северо-восточный, В - восточный, ЮВ - юго-восточный, Ю - южный, ЮЗ - юго-западный, З - западный, СЗ - северо-западный.
Видимость - горизонтальная дальность видимости в метрах или километрах. При видимости от 1 до 10 км при отсутствии осадков обычно наблюдается дымка, при ухудшении видимости до 1 км и менее - туман. В сухую погоду видимость может ухудшаться дымом, пылью или мглою.
Явления - указаны атмосферные явления, наблюдавшиеся в срок или в последний час перед сроком; фигурными скобками обозначены явления, наблюдавшиеся между сроками (за 1-3 часа до срока); квадратными скобками обозначены град или гололедные отложения с указанием их диаметра в мм.
Облачность - указаны через наклонную черту общая и нижняя облачность в баллах и высота нижней границы облаков в метрах; квадратными скобками обозначены формы облаков: Ci - перистые, Cs - перисто-слоистые, Cc - перисто-кучевые, Ac - высококучевые, As - высокослоистые, Sc - слоисто-кучевые, Ns - слоисто-дождевые, Cu - кучевые, Cb - кучево-дождевые. Подробнее классификацию облаков см. в Атласе облаков (PDF).
T - Температура воздуха - температура, измеренная на высоте 2 м над землей.
Td - Температура точки росы - температура, при понижении до которой содержащийся в воздухе водяной пар достигнет насыщения.
f - Относительная влажность воздуха - влажноcть воздуха, измеренная на высоте 2 м над землей.
Te - Эффективная температура - температура, которую ощущает одетый по сезону человек в тени. Характеристика душности погоды. При расчете учитывается влияние влажности воздуха и скорости ветра на теплоощущения человека.
Tes - Эффективная температура на солнце - температура, которую ощущает человек, с поправкой на солнечный нагрев. Характеристика знойности погоды. Зависит от высоты солнца над горизонтом, облачности и скорости ветра. Ночью, в пасмурную погоду, а также при ветре 12 м/с и более поправка равна нулю.
P - Атмосферное давление - приведенное к уровню моря атмосферное давление.
Po - Атмосферное давление - измеренное на уровне метеостанции атмосферное давление.
Tmin - Минимальная температура - минимум температуры воздуха на высоте 2 м над землей.
Tmax - Максимальная температура - максимум температуры воздуха на высоте 2 м над землей.
R - Количество осадков - Количество выпавших осадков за период времени, мм. При наведении курсора мыши на число - период времени, за который выпало указанное количество осадков.
R24 - Количество осадков - Количество выпавших осадков за 24 часа, мм.
S - Снежный покров - Высота снежного покрова, см. При наведении курсора мыши на число - состояние снежного покрова и степень покрытия местности в баллах.